Regional Weather Roundup
Issued by NWS

Home | Current Version | Previous Version | Text Only | Print | Product List | Glossary Off
Versions: 1 2 3 4 5 6 7 8 9 10 11 12 13 14 15 16 17 18 19 20 21 22 23 24 25 26 27 28 29 30 31 32 33 34 35 36 37 38 39 40 41 42 43 44 45 46 47 48 49 50

000
ASUS43 KLMK 020110
RWRKY
KENTUCKY REGIONAL WEATHER ROUNDUP
NATIONAL WEATHER SERVICE LOUISVILLE KY
900 PM EDT TUE SEP 01 2015

NOTE "FAIR" INDICATES FEW OR NO CLOUDS BELOW 12,000 FEET
WITH NO SIGNIFICANT WEATHER AND/OR OBSTRUCTIONS TO VISIBILITY.

KYZ001>023-026-027-061>063-070>075-020200-
WESTERN AND SOUTH CENTRAL KENTUCKY

CITY           SKY/WX    TMP DP  RH WIND       PRES   REMARKS
PADUCAH        PTCLDY    76  70  82 SE3       30.07R
HENDERSON      PTCLDY    75  70  83 CALM      30.07S
OWENSBORO      MOCLDY    81  70  69 CALM      30.09R
HOPKINSVILLE   MOCLDY    79  69  70 VRB1      30.09R
BOWLING GREEN  PTCLDY    80  67  64 CALM      30.09S
GLASGOW        CLOUDY    75  68  78 CALM      30.11R
$$

KYZ024-025-028>034-038-045-046-053-020200-
NORTH CENTRAL KENTUCKY

CITY           SKY/WX    TMP DP  RH WIND       PRES   REMARKS
LOUISVILLE/SDF PTCLDY    82  64  54 CALM      30.09R
LOUISVILLE/LOU PTCLDY    76  69  79 CALM      30.10R
FORT KNOX      PTCLDY    74  67  80 CALM      30.09R
$$

KYZ035>037-039>044-047>052-055>060-089>105-020200-
NORTHEAST KENTUCKY

CITY           SKY/WX    TMP DP  RH WIND       PRES   REMARKS
LEXINGTON      MOCLDY    80  65  59 NW3       30.12R
COVINGTON      MOCLDY    75  68  78 CALM      30.10S
FRANKFORT      PTCLDY    75  66  73 CALM      30.10R
$$

KYZ054-064>069-076>088-106>120-020200-
SOUTHEAST KENTUCKY

CITY           SKY/WX    TMP DP  RH WIND       PRES   REMARKS
JACKSON        PTCLDY    79  63  57 CALM      30.14R
LONDON         PTCLDY    77  68  73 CALM      30.13R
SOMERSET       MOCLDY    73  70  88 CALM      30.13R
MIDDLESBORO    PTCLDY    74  70  85 CALM      30.13R
MONTICELLO     MOCLDY    72  71  96 CALM      30.15R
$$




USA.gov is the U.S. government's official web portal to all federal, state and local government web resources and services.